Flag for China Weather past 2 weeks in Taiyuan, China

Now
73 °F

Clear.


Feels Like: 77 °F
Forecast: 50 / 67 °F
Wind: 1 mph from South

Location: Taiyuan Airport


UV Index: 0 (Low)

Visibility: 5 mi


Pressure: 29.95 "Hg

Humidity: 36%

Dew point: 45 °F

Location of TaiyuanLocation

Historic Weather in Taiyuan

°F

Taiyuan temperature yesterday

Maximum temperature yesterday: 75 °F (at 4:30 PM)
Minimum temperature yesterday: 48 °F (at 2:30 AM)
Average temperature yesterday: 61 °F

Past Weeks' High & Low Weather Summary

 TemperatureHumidityPressure
High81 °F (Apr 9, 3:00 PM)94% (Apr 13, 3:00 AM)30.15 "Hg (Apr 13, 3:00 AM)
Low43 °F (Apr 22, 6:00 AM)12% (Apr 9, 2:30 PM)29.77 "Hg (Apr 23, 4:30 PM)
Average57 °F63%30.01 "Hg
* Reported Apr 9 11:00 AM — Apr 24 11:30 AM, Taiyuan, Weather by CustomWeather, © 2014

Note: Actual official high and low records may vary slightly from our data, if they occured in-between our weather recording intervals... More about our weather records

Advertising

Historic Weather Conditions — Data for Previous 24 hours

 ConditionsComfort  
Time TempWeatherWind HumidityBarometerVisibility
11:30 AM
Apr 24
72 °FClear.1 mph38%29.95 "Hg4 mi
11:00 AM70 °FHaze.1 mph46%29.98 "Hg3 mi
10:30 AM66 °FHaze.1 mph52%29.98 "Hg3 mi
10:00 AM66 °FHaze.1 mph52%29.98 "Hg2 mi
9:30 AM64 °FHaze.1 mph56%29.98 "Hg2 mi
9:00 AM63 °FHaze.1 mph56%29.98 "Hg2 mi
8:30 AM59 °FHaze.1 mph63%29.98 "Hg2 mi
8:00 AM57 °FHaze.1 mph67%29.98 "Hg2 mi
7:30 AM55 °FHaze.No wind72%29.98 "Hg2 mi
7:00 AM52 °FHaze.1 mph82%29.95 "Hg2 mi
6:30 AM50 °FHaze.No wind76%29.95 "Hg2 mi
6:00 AM50 °FHaze.No wind76%29.92 "Hg2 mi
5:30 AM52 °FHaze.1 mph77%29.92 "Hg2 mi
5:00 AM52 °FHaze.1 mph77%29.92 "Hg2 mi
4:30 AM52 °FHaze.3 mph77%29.92 "Hg3 mi
4:00 AM54 °FHaze.1 mph72%29.92 "Hg3 mi
3:30 AM54 °FClear.6 mph72%29.92 "Hg4 mi
3:00 AM55 °FClear.6 mph67%29.92 "Hg4 mi
2:30 AM57 °FClear.8 mph63%29.92 "Hg4 mi
2:00 AM57 °FClear.6 mph63%29.92 "Hg4 mi
1:30 AM57 °FClear.8 mph67%29.92 "Hg4 mi
1:00 AM55 °FClear.6 mph72%29.92 "Hg5 mi
12:30 AM57 °FClear.3 mph67%29.89 "Hg4 mi
12:00 AM57 °FClear.6 mph63%29.89 "Hg10 mi
11:30 PM
Apr 23
59 °FClear.3 mph59%29.89 "Hg10 mi
11:00 PM61 °FClear.3 mph55%29.89 "Hg10 mi
10:30 PM61 °FClear.3 mph55%29.89 "Hg10 mi
10:00 PM64 °FPassing clouds.6 mph46%29.86 "HgN/A
9:30 PM64 °FThunderstorms. Passing clouds.6 mph49%29.86 "HgN/A
9:00 PM64 °FThunderstorms. Passing clouds.3 mph46%29.86 "HgN/A
8:30 PM66 °FClear.3 mph40%29.83 "Hg10 mi
8:00 PM66 °FClear.3 mph43%29.80 "Hg5 mi
7:30 PM66 °FClear.1 mph43%29.80 "Hg5 mi
7:00 PM72 °FSunny.3 mph33%29.80 "Hg10 mi
6:30 PM73 °FSunny.3 mph31%29.80 "Hg10 mi
6:00 PM73 °FPassing clouds.6 mph31%29.77 "HgN/A
5:30 PM73 °FPassing clouds.3 mph29%29.77 "HgN/A
5:00 PM75 °FPassing clouds.6 mph29%29.77 "HgN/A
4:30 PM75 °FPassing clouds.6 mph29%29.77 "HgN/A
4:00 PM72 °FPassing clouds.6 mph33%29.80 "HgN/A
3:30 PM72 °FPassing clouds.8 mph31%29.80 "HgN/A
3:00 PM73 °FPassing clouds.8 mph29%29.80 "HgN/A
2:30 PM72 °FPassing clouds.8 mph33%29.80 "HgN/A
2:00 PM72 °FPassing clouds.6 mph31%29.83 "HgN/A
1:30 PM70 °FPassing clouds.8 mph35%29.86 "HgN/A
1:00 PM70 °FPassing clouds.6 mph35%29.86 "HgN/A
12:30 PM68 °FPassing clouds.6 mph35%29.86 "HgN/A
12:00 PM66 °FPassing clouds.6 mph37%29.89 "HgN/A
Weather by CustomWeather, © 2014

See weather overview